Time,TemperatureF,DewpointF,PressureIn,WindDirection,WindDirectionDegrees,WindSpeedMPH,WindSpeedGustMPH,Humidity,HourlyPrecipIn,Conditions,Clouds,dailyrainin,SoftwareType,DateUTC
2013-03-12 00:04:00,47.8,20.1,30.05,NNW,338,0.9,6.0,33,0.00,,,0.00,meteobridge,2013-03-12 06:04:00,
2013-03-12 00:09:00,47.5,19.8,30.05,NNE,26,0.0,2.0,33,0.00,,,0.00,meteobridge,2013-03-12 06:09:00,
2013-03-12 00:14:00,46.9,19.9,30.05,NNE,21,0.9,2.0,34,0.00,,,0.00,meteobridge,2013-03-12 06:14:00,
2013-03-12 00:20:00,46.8,20.5,30.04,NNE,17,0.9,0.9,35,0.00,,,0.00,meteobridge,2013-03-12 06:20:00,
2013-03-12 00:25:00,46.2,20.1,30.04,NNE,17,0.9,0.9,35,0.00,,,0.00,meteobridge,2013-03-12 06:25:00,
2013-03-12 00:30:00,45.7,20.3,30.04,NNE,17,0.9,2.0,36,0.00,,,0.00,meteobridge,2013-03-12 06:30:00,
2013-03-12 00:35:00,45.7,20.3,30.04,NNW,348,0.0,0.9,36,0.00,,,0.00,meteobridge,2013-03-12 06:35:00,
2013-03-12 00:40:00,45.9,20.5,30.05,NNW,348,0.0,2.0,36,0.00,,,0.00,meteobridge,2013-03-12 06:40:00,
2013-03-12 00:45:00,45.7,20.8,30.05,East,96,0.9,2.0,37,0.00,,,0.00,meteobridge,2013-03-12 06:45:00,
2013-03-12 00:50:00,45.0,20.8,30.05,ESE,103,0.0,0.0,38,0.00,,,0.00,meteobridge,2013-03-12 06:50:00,
2013-03-12 00:55:00,44.8,20.7,30.05,East,101,0.0,0.0,38,0.00,,,0.00,meteobridge,2013-03-12 06:55:00,
2013-03-12 01:00:00,45.5,20.7,30.05,North,0,0.0,0.0,37,0.00,,,0.00,meteobridge,2013-03-12 07:00:00,
2013-03-12 01:05:00,45.0,20.8,30.05,North,0,0.0,0.0,38,0.00,,,0.00,meteobridge,2013-03-12 07:05:00,
2013-03-12 01:11:00,43.9,20.5,30.05,North,0,0.0,0.0,39,0.00,,,0.00,meteobridge,2013-03-12 07:11:00,
2013-03-12 01:16:00,43.5,20.8,30.06,North,0,0.0,0.0,40,0.00,,,0.00,meteobridge,2013-03-12 07:16:00,
2013-03-12 01:21:00,43.0,20.8,30.06,North,0,0.0,0.0,41,0.00,,,0.00,meteobridge,2013-03-12 07:21:00,
2013-03-12 01:26:00,42.4,21.0,30.05,North,0,0.0,0.0,42,0.00,,,0.00,meteobridge,2013-03-12 07:26:00,
2013-03-12 01:31:00,42.3,20.8,30.06,North,0,0.9,0.9,42,0.00,,,0.00,meteobridge,2013-03-12 07:31:00,
2013-03-12 01:36:00,42.1,20.7,30.06,North,0,0.0,0.9,42,0.00,,,0.00,meteobridge,2013-03-12 07:36:00,
2013-03-12 01:41:00,42.1,21.2,30.06,North,0,0.0,0.0,43,0.00,,,0.00,meteobridge,2013-03-12 07:41:00,
2013-03-12 01:46:00,42.3,20.8,30.06,North,0,0.0,0.0,42,0.00,,,0.00,meteobridge,2013-03-12 07:46:00,
2013-03-12 01:51:00,41.5,20.7,30.06,North,0,0.0,0.0,43,0.00,,,0.00,meteobridge,2013-03-12 07:51:00,
2013-03-12 01:56:00,40.8,21.2,30.06,North,0,0.0,0.0,45,0.00,,,0.00,meteobridge,2013-03-12 07:56:00,
2013-03-12 02:01:00,40.5,20.8,30.06,North,0,0.0,0.0,45,0.00,,,0.00,meteobridge,2013-03-12 08:01:00,
2013-03-12 02:07:00,40.5,20.8,30.06,North,0,0.0,0.0,45,0.00,,,0.00,meteobridge,2013-03-12 08:07:00,
2013-03-12 02:12:00,40.5,20.8,30.06,North,0,0.0,0.0,45,0.00,,,0.00,meteobridge,2013-03-12 08:12:00,
2013-03-12 02:17:00,40.6,21.0,30.05,North,0,0.0,0.0,45,0.00,,,0.00,meteobridge,2013-03-12 08:17:00,
2013-03-12 02:23:00,40.6,21.0,30.05,North,0,0.0,0.0,45,0.00,,,0.00,meteobridge,2013-03-12 08:23:00,
2013-03-12 02:28:00,40.8,21.2,30.05,North,0,0.0,0.0,45,0.00,,,0.00,meteobridge,2013-03-12 08:28:00,
2013-03-12 02:33:00,40.6,21.0,30.05,North,0,0.0,0.0,45,0.00,,,0.00,meteobridge,2013-03-12 08:33:00,
2013-03-12 02:38:00,40.1,21.0,30.05,North,0,0.0,0.0,46,0.00,,,0.00,meteobridge,2013-03-12 08:38:00,
2013-03-12 02:43:00,40.1,21.0,30.05,North,0,0.0,0.9,46,0.00,,,0.00,meteobridge,2013-03-12 08:43:00,
2013-03-12 02:49:00,40.5,21.4,30.05,West,274,0.0,0.0,46,0.00,,,0.00,meteobridge,2013-03-12 08:49:00,
2013-03-12 02:54:00,40.6,21.0,30.04,West,275,0.0,0.9,45,0.00,,,0.00,meteobridge,2013-03-12 08:54:00,
2013-03-12 02:59:00,40.6,21.0,30.05,West,274,0.0,0.0,45,0.00,,,0.00,meteobridge,2013-03-12 08:59:00,
2013-03-12 03:04:00,40.5,20.8,30.05,West,274,0.0,0.0,45,0.00,,,0.00,meteobridge,2013-03-12 09:04:00,
2013-03-12 03:09:00,39.9,20.8,30.04,WSW,247,0.0,2.0,46,0.00,,,0.00,meteobridge,2013-03-12 09:09:00,
2013-03-12 03:15:00,40.5,20.8,30.04,West,259,0.0,2.0,45,0.00,,,0.00,meteobridge,2013-03-12 09:15:00,
2013-03-12 03:19:00,41.2,20.8,30.04,WSW,258,0.0,0.9,44,0.00,,,0.00,meteobridge,2013-03-12 09:19:00,
2013-03-12 03:25:00,41.4,21.0,30.04,WSW,240,0.0,0.0,44,0.00,,,0.00,meteobridge,2013-03-12 09:25:00,
2013-03-12 03:30:00,40.6,21.0,30.05,ESE,103,0.0,2.9,45,0.00,,,0.00,meteobridge,2013-03-12 09:30:00,
2013-03-12 03:35:00,40.6,21.0,30.05,ESE,111,0.0,2.0,45,0.00,,,0.00,meteobridge,2013-03-12 09:35:00,
2013-03-12 03:40:00,40.3,21.2,30.05,ESE,111,0.0,0.0,46,0.00,,,0.00,meteobridge,2013-03-12 09:40:00,
2013-03-12 03:46:00,40.3,21.2,30.05,ESE,111,0.0,0.9,46,0.00,,,0.00,meteobridge,2013-03-12 09:46:00,
2013-03-12 03:51:00,39.9,20.8,30.05,ESE,111,0.0,0.9,46,0.00,,,0.00,meteobridge,2013-03-12 09:51:00,
2013-03-12 03:56:00,39.4,20.8,30.05,South,174,0.0,0.0,47,0.00,,,0.00,meteobridge,2013-03-12 09:56:00,
2013-03-12 04:01:00,39.2,21.2,30.05,South,174,0.0,0.0,48,0.00,,,0.00,meteobridge,2013-03-12 10:01:00,
2013-03-12 04:06:00,39.2,21.2,30.05,South,174,0.0,0.9,48,0.00,,,0.00,meteobridge,2013-03-12 10:06:00,
2013-03-12 04:11:00,39.2,21.2,30.05,South,174,0.0,0.0,48,0.00,,,0.00,meteobridge,2013-03-12 10:11:00,
2013-03-12 04:16:00,39.9,21.4,30.06,South,174,0.9,0.9,47,0.00,,,0.00,meteobridge,2013-03-12 10:16:00,
2013-03-12 04:21:00,39.9,21.4,30.06,South,177,0.0,0.0,47,0.00,,,0.00,meteobridge,2013-03-12 10:21:00,
2013-03-12 04:27:00,40.6,21.6,30.06,South,177,0.0,0.9,46,0.00,,,0.00,meteobridge,2013-03-12 10:27:00,
2013-03-12 04:32:00,40.1,21.6,30.06,South,176,0.0,0.0,47,0.00,,,0.00,meteobridge,2013-03-12 10:32:00,
2013-03-12 04:37:00,39.4,21.7,30.06,South,176,0.9,0.9,49,0.00,,,0.00,meteobridge,2013-03-12 10:37:00,
2013-03-12 04:42:00,39.0,21.6,30.06,South,176,0.0,0.0,49,0.00,,,0.00,meteobridge,2013-03-12 10:42:00,
2013-03-12 04:47:00,38.5,21.4,30.07,SSE,156,0.0,2.9,50,0.00,,,0.00,meteobridge,2013-03-12 10:47:00,
2013-03-12 04:52:00,39.9,21.7,30.07,SE,138,2.9,2.9,48,0.00,,,0.00,meteobridge,2013-03-12 10:52:00,
2013-03-12 04:57:00,39.4,21.7,30.07,ESE,122,0.9,2.9,49,0.00,,,0.00,meteobridge,2013-03-12 10:57:00,
2013-03-12 05:02:00,39.4,21.7,30.07,ENE,74,0.0,2.0,49,0.00,,,0.00,meteobridge,2013-03-12 11:02:00,
2013-03-12 05:07:00,39.6,21.6,30.08,SE,128,0.0,2.9,48,0.00,,,0.00,meteobridge,2013-03-12 11:07:00,
2013-03-12 05:12:00,39.7,21.7,30.08,SE,138,0.9,2.0,48,0.00,,,0.00,meteobridge,2013-03-12 11:12:00,
2013-03-12 05:17:00,39.4,21.4,30.08,SE,138,0.9,2.0,48,0.00,,,0.00,meteobridge,2013-03-12 11:17:00,
2013-03-12 05:22:00,39.0,21.6,30.09,SE,136,2.0,2.0,49,0.00,,,0.00,meteobridge,2013-03-12 11:22:00,
2013-03-12 05:28:00,38.8,21.4,30.09,SE,141,0.0,2.9,49,0.00,,,0.00,meteobridge,2013-03-12 11:28:00,
2013-03-12 05:33:00,38.7,21.2,30.09,SE,142,0.9,2.0,49,0.00,,,0.00,meteobridge,2013-03-12 11:33:00,
2013-03-12 05:38:00,38.5,21.4,30.09,SE,142,0.0,0.9,50,0.00,,,0.00,meteobridge,2013-03-12 11:38:00,
2013-03-12 05:43:00,38.1,21.2,30.09,SE,142,0.0,2.0,50,0.00,,,0.00,meteobridge,2013-03-12 11:43:00,
2013-03-12 05:48:00,37.6,21.0,30.09,SE,142,0.0,0.0,51,0.00,,,0.00,meteobridge,2013-03-12 11:48:00,
2013-03-12 05:53:00,37.6,21.0,30.10,SE,128,0.9,2.0,51,0.00,,,0.00,meteobridge,2013-03-12 11:53:00,
2013-03-12 05:58:00,37.6,21.0,30.10,SE,128,2.0,2.0,51,0.00,,,0.00,meteobridge,2013-03-12 11:58:00,
2013-03-12 06:03:00,37.6,21.0,30.10,SE,128,0.0,0.0,51,0.00,,,0.00,meteobridge,2013-03-12 12:03:00,
2013-03-12 06:09:00,37.0,20.7,30.10,SE,128,2.9,2.9,51,0.00,,,0.00,meteobridge,2013-03-12 12:09:00,
2013-03-12 06:14:00,37.6,21.0,30.11,SE,132,2.0,2.0,51,0.00,,,0.00,meteobridge,2013-03-12 12:14:00,
2013-03-12 06:19:00,37.6,21.0,30.11,SE,132,0.0,2.0,51,0.00,,,0.00,meteobridge,2013-03-12 12:19:00,
2013-03-12 06:24:00,37.2,20.8,30.11,SE,132,0.0,0.9,51,0.00,,,0.00,meteobridge,2013-03-12 12:24:00,
2013-03-12 06:29:00,37.2,21.2,30.11,SE,132,0.0,0.9,52,0.00,,,0.00,meteobridge,2013-03-12 12:29:00,
2013-03-12 06:34:00,37.2,21.2,30.11,SE,132,0.9,0.9,52,0.00,,,0.00,meteobridge,2013-03-12 12:34:00,
2013-03-12 06:40:00,36.5,21.0,30.11,SE,132,0.0,0.0,53,0.00,,,0.00,meteobridge,2013-03-12 12:40:00,
2013-03-12 06:45:00,36.1,21.0,30.11,SE,132,0.9,0.9,54,0.00,,,0.00,meteobridge,2013-03-12 12:45:00,
2013-03-12 06:50:00,36.0,21.0,30.12,SE,132,0.0,2.0,54,0.00,,,0.00,meteobridge,2013-03-12 12:50:00,
2013-03-12 06:55:00,35.8,21.2,30.12,SE,132,0.0,2.0,55,0.00,,,0.00,meteobridge,2013-03-12 12:55:00,
2013-03-12 07:00:00,36.1,21.6,30.11,SE,132,0.0,0.0,55,0.00,,,0.00,meteobridge,2013-03-12 13:00:00,
2013-03-12 07:05:00,36.3,21.2,30.11,SE,132,0.0,0.9,54,0.00,,,0.00,meteobridge,2013-03-12 13:05:00,
2013-03-12 07:10:00,36.1,21.0,30.12,ENE,76,0.0,2.9,54,0.00,,,0.00,meteobridge,2013-03-12 13:10:00,
2013-03-12 07:15:00,36.0,21.4,30.12,ENE,76,0.0,0.0,55,0.00,,,0.00,meteobridge,2013-03-12 13:15:00,
2013-03-12 07:20:00,35.8,21.6,30.12,ENE,77,0.0,0.0,56,0.00,,,0.00,meteobridge,2013-03-12 13:20:00,
2013-03-12 07:25:00,35.4,21.7,30.13,ENE,76,0.0,0.0,57,0.00,,,0.00,meteobridge,2013-03-12 13:25:00,
2013-03-12 07:30:00,35.4,21.7,30.13,ENE,76,0.0,0.0,57,0.00,,,0.00,meteobridge,2013-03-12 13:30:00,
2013-03-12 07:35:00,35.2,21.9,30.13,ENE,77,0.0,0.0,58,0.00,,,0.00,meteobridge,2013-03-12 13:35:00,
2013-03-12 07:40:00,35.4,21.7,30.13,ENE,77,0.0,0.0,57,0.00,,,0.00,meteobridge,2013-03-12 13:40:00,
2013-03-12 07:45:00,35.6,21.9,30.14,ENE,76,0.0,0.0,57,0.00,,,0.00,meteobridge,2013-03-12 13:45:00,
2013-03-12 07:50:00,35.8,22.1,30.14,ENE,76,0.0,2.0,57,0.00,,,0.00,meteobridge,2013-03-12 13:50:00,
2013-03-12 07:55:00,36.0,22.3,30.14,ENE,76,0.0,0.9,57,0.00,,,0.00,meteobridge,2013-03-12 13:55:00,
2013-03-12 08:00:00,36.9,22.3,30.14,ENE,77,0.0,0.9,55,0.00,,,0.00,meteobridge,2013-03-12 14:00:00,
2013-03-12 08:05:00,37.4,22.6,30.14,ENE,78,0.0,2.0,55,0.00,,,0.00,meteobridge,2013-03-12 14:05:00,
2013-03-12 08:10:00,38.3,23.2,30.15,SE,127,0.9,2.9,54,0.00,,,0.00,meteobridge,2013-03-12 14:10:00,
2013-03-12 08:16:00,39.4,23.2,30.15,SE,127,0.9,2.0,52,0.00,,,0.00,meteobridge,2013-03-12 14:16:00,
2013-03-12 08:21:00,40.1,23.0,30.14,ESE,106,0.9,2.0,50,0.00,,,0.00,meteobridge,2013-03-12 14:21:00,
2013-03-12 08:26:00,41.0,23.4,30.15,ESE,106,0.0,0.9,49,0.00,,,0.00,meteobridge,2013-03-12 14:26:00,
2013-03-12 08:31:00,41.7,23.5,30.15,ESE,106,2.0,2.0,48,0.00,,,0.00,meteobridge,2013-03-12 14:31:00,
2013-03-12 08:36:00,42.4,23.2,30.16,ESE,106,0.9,0.9,46,0.00,,,0.00,meteobridge,2013-03-12 14:36:00,
2013-03-12 08:42:00,43.0,23.2,30.16,ESE,115,0.9,0.9,45,0.00,,,0.00,meteobridge,2013-03-12 14:42:00,
2013-03-12 08:47:00,43.3,23.4,30.16,ESE,115,0.9,0.9,45,0.00,,,0.00,meteobridge,2013-03-12 14:47:00,
2013-03-12 08:52:00,43.9,22.8,30.16,ESE,115,0.0,0.9,43,0.00,,,0.00,meteobridge,2013-03-12 14:52:00,
2013-03-12 08:57:00,44.8,22.5,30.16,ESE,115,0.0,0.0,41,0.00,,,0.00,meteobridge,2013-03-12 14:57:00,
2013-03-12 09:02:00,45.1,22.3,30.16,ESE,116,0.0,0.0,40,0.00,,,0.00,meteobridge,2013-03-12 15:02:00,
2013-03-12 09:07:00,46.6,23.0,30.16,ESE,115,0.0,0.9,39,0.00,,,0.00,meteobridge,2013-03-12 15:07:00,
2013-03-12 09:12:00,47.1,22.1,30.16,East,96,0.9,2.0,37,0.00,,,0.00,meteobridge,2013-03-12 15:12:00,
2013-03-12 09:17:00,47.3,22.3,30.16,NNE,29,0.0,0.9,37,0.00,,,0.00,meteobridge,2013-03-12 15:17:00,
2013-03-12 09:23:00,47.5,22.5,30.16,North,355,0.0,2.0,37,0.00,,,0.00,meteobridge,2013-03-12 15:23:00,
2013-03-12 09:28:00,47.7,22.6,30.16,NNE,18,0.0,0.9,37,0.00,,,0.00,meteobridge,2013-03-12 15:28:00,
2013-03-12 09:33:00,47.8,22.1,30.17,NNW,339,2.0,4.0,36,0.00,,,0.00,meteobridge,2013-03-12 15:33:00,
2013-03-12 09:39:00,47.8,22.8,30.17,NNW,341,0.9,2.9,37,0.00,,,0.00,meteobridge,2013-03-12 15:39:00,
2013-03-12 09:44:00,48.6,22.8,30.17,NNW,348,0.9,4.0,36,0.00,,,0.00,meteobridge,2013-03-12 15:44:00,
2013-03-12 09:49:00,48.7,22.3,30.17,North,9,0.9,2.9,35,0.00,,,0.00,meteobridge,2013-03-12 15:49:00,
2013-03-12 09:54:00,48.9,22.5,30.17,NNW,347,0.0,4.9,35,0.00,,,0.00,meteobridge,2013-03-12 15:54:00,
2013-03-12 09:59:00,49.3,22.8,30.17,NE,42,0.9,4.0,35,0.00,,,0.00,meteobridge,2013-03-12 15:59:00,
2013-03-12 10:04:00,49.5,23.0,30.17,ENE,67,0.0,6.0,35,0.00,,,0.00,meteobridge,2013-03-12 16:04:00,
2013-03-12 10:09:00,50.2,23.5,30.17,WNW,296,2.0,2.0,35,0.00,,,0.00,meteobridge,2013-03-12 16:09:00,
2013-03-12 10:14:00,50.5,23.2,30.16,NNW,347,0.9,2.9,34,0.00,,,0.00,meteobridge,2013-03-12 16:14:00,
2013-03-12 10:19:00,50.4,23.0,30.16,East,98,0.0,0.9,34,0.00,,,0.00,meteobridge,2013-03-12 16:19:00,
2013-03-12 10:24:00,51.1,23.7,30.16,NNE,32,2.0,6.0,34,0.00,,,0.00,meteobridge,2013-03-12 16:24:00,
2013-03-12 10:29:00,51.1,23.0,30.16,NNW,348,4.9,6.0,33,0.00,,,0.00,meteobridge,2013-03-12 16:29:00,
2013-03-12 10:34:00,51.3,23.9,30.16,NW,320,2.9,6.0,34,0.00,,,0.00,meteobridge,2013-03-12 16:34:00,
2013-03-12 10:39:00,51.8,23.5,30.15,NW,305,2.0,6.9,33,0.00,,,0.00,meteobridge,2013-03-12 16:39:00,
2013-03-12 10:44:00,52.3,23.4,30.16,NNE,27,2.9,4.9,32,0.00,,,0.00,meteobridge,2013-03-12 16:44:00,
2013-03-12 10:49:00,52.5,23.5,30.16,WNW,295,0.9,4.0,32,0.00,,,0.00,meteobridge,2013-03-12 16:49:00,
2013-03-12 10:54:00,53.4,23.5,30.16,North,5,2.9,4.9,31,0.00,,,0.00,meteobridge,2013-03-12 16:54:00,
2013-03-12 10:59:00,53.6,23.7,30.16,WNW,287,0.9,2.9,31,0.00,,,0.00,meteobridge,2013-03-12 16:59:00,
2013-03-12 11:04:00,53.4,23.5,30.16,NW,321,0.9,4.0,31,0.00,,,0.00,meteobridge,2013-03-12 17:04:00,
2013-03-12 11:09:00,54.3,23.5,30.16,NW,313,0.0,4.9,30,0.00,,,0.00,meteobridge,2013-03-12 17:09:00,
2013-03-12 11:14:00,54.7,23.9,30.16,NNW,333,2.9,4.9,30,0.00,,,0.00,meteobridge,2013-03-12 17:14:00,
2013-03-12 11:19:00,54.7,24.6,30.16,NW,313,2.0,2.9,31,0.00,,,0.00,meteobridge,2013-03-12 17:19:00,
2013-03-12 11:24:00,54.5,23.7,30.16,NNW,339,0.0,0.9,30,0.00,,,0.00,meteobridge,2013-03-12 17:24:00,
2013-03-12 11:30:00,55.0,23.4,30.16,NNW,345,4.0,6.0,29,0.00,,,0.00,meteobridge,2013-03-12 17:30:00,
2013-03-12 11:35:00,54.1,24.1,30.16,East,99,0.0,0.9,31,0.00,,,0.00,meteobridge,2013-03-12 17:35:00,
2013-03-12 11:40:00,55.2,24.3,30.16,NW,313,0.9,2.9,30,0.00,,,0.00,meteobridge,2013-03-12 17:40:00,
2013-03-12 11:45:00,55.8,23.2,30.16,NNE,21,0.9,4.0,28,0.00,,,0.00,meteobridge,2013-03-12 17:45:00,
2013-03-12 11:50:00,55.6,24.6,30.16,North,355,2.9,4.0,30,0.00,,,0.00,meteobridge,2013-03-12 17:50:00,
2013-03-12 11:55:00,55.8,23.9,30.15,SW,221,0.0,2.9,29,0.00,,,0.00,meteobridge,2013-03-12 17:55:00,
2013-03-12 12:00:00,56.5,23.7,30.15,WSW,245,4.9,4.9,28,0.00,,,0.00,meteobridge,2013-03-12 18:00:00,
2013-03-12 12:05:00,57.9,24.1,30.15,NW,318,4.0,6.0,27,0.00,,,0.00,meteobridge,2013-03-12 18:05:00,
2013-03-12 12:10:00,58.1,24.3,30.15,North,0,4.0,6.9,27,0.00,,,0.00,meteobridge,2013-03-12 18:10:00,
2013-03-12 12:15:00,58.6,22.8,30.14,North,349,2.0,12.1,25,0.00,,,0.00,meteobridge,2013-03-12 18:15:00,
2013-03-12 12:20:00,59.5,23.7,30.14,NNW,327,2.9,8.9,25,0.00,,,0.00,meteobridge,2013-03-12 18:20:00,
2013-03-12 12:25:00,59.5,23.7,30.14,NNE,12,4.0,10.1,25,0.00,,,0.00,meteobridge,2013-03-12 18:25:00,
2013-03-12 12:30:00,59.7,22.8,30.14,NW,314,0.9,8.1,24,0.00,,,0.00,meteobridge,2013-03-12 18:30:00,
2013-03-12 12:35:00,59.7,22.8,30.14,North,350,8.9,10.1,24,0.00,,,0.00,meteobridge,2013-03-12 18:35:00,
2013-03-12 12:40:00,59.7,22.8,30.14,NE,38,4.0,6.9,24,0.00,,,0.00,meteobridge,2013-03-12 18:40:00,
2013-03-12 12:45:00,61.0,23.9,30.14,NNW,327,11.0,11.0,24,0.00,,,0.00,meteobridge,2013-03-12 18:45:00,
2013-03-12 12:50:00,59.7,21.9,30.13,NW,322,0.9,4.9,23,0.00,,,0.00,meteobridge,2013-03-12 18:50:00,
2013-03-12 12:55:00,60.4,23.5,30.13,NNW,334,4.0,8.1,24,0.00,,,0.00,meteobridge,2013-03-12 18:55:00,
2013-03-12 13:00:00,62.1,21.7,30.13,NE,34,2.9,6.0,21,0.00,,,0.00,meteobridge,2013-03-12 19:00:00,
2013-03-12 13:05:00,62.2,23.0,30.13,WNW,294,4.9,6.0,22,0.00,,,0.00,meteobridge,2013-03-12 19:05:00,
2013-03-12 13:10:00,62.1,21.7,30.13,North,0,4.0,13.0,21,0.00,,,0.00,meteobridge,2013-03-12 19:10:00,
2013-03-12 13:15:00,62.2,21.7,30.12,NNE,22,4.0,4.9,21,0.00,,,0.00,meteobridge,2013-03-12 19:15:00,
2013-03-12 13:28:00,62.2,23.0,30.12,NW,315,0.9,2.0,22,0.00,,,0.00,meteobridge,2013-03-12 19:28:00,
2013-03-12 13:33:00,62.2,21.7,30.11,NNE,19,6.0,8.9,21,0.00,,,0.00,meteobridge,2013-03-12 19:33:00,
2013-03-12 13:38:00,62.1,21.7,30.11,NNW,327,2.9,6.9,21,0.00,,,0.00,meteobridge,2013-03-12 19:38:00,
2013-03-12 13:43:00,63.1,22.6,30.11,NNW,344,6.0,6.9,21,0.00,,,0.00,meteobridge,2013-03-12 19:43:00,
2013-03-12 13:48:00,63.0,21.2,30.10,North,355,2.0,4.0,20,0.00,,,0.00,meteobridge,2013-03-12 19:48:00,
2013-03-12 13:53:00,63.1,21.4,30.10,ESE,121,2.0,2.9,20,0.00,,,0.00,meteobridge,2013-03-12 19:53:00,
2013-03-12 13:58:00,64.0,22.1,30.09,NNE,19,4.9,6.9,20,0.00,,,0.00,meteobridge,2013-03-12 19:58:00,
2013-03-12 14:03:00,63.9,21.9,30.09,NNW,334,2.0,6.9,20,0.00,,,0.00,meteobridge,2013-03-12 20:03:00,
2013-03-12 14:08:00,63.3,22.6,30.09,NNE,13,2.0,6.0,21,0.00,,,0.00,meteobridge,2013-03-12 20:08:00,
2013-03-12 14:13:00,64.0,22.1,30.09,North,355,4.9,4.9,20,0.00,,,0.00,meteobridge,2013-03-12 20:13:00,
2013-03-12 14:18:00,63.1,21.4,30.08,NNW,348,4.0,6.0,20,0.00,,,0.00,meteobridge,2013-03-12 20:18:00,
2013-03-12 14:23:00,63.1,21.4,30.08,NE,44,2.0,4.0,20,0.00,,,0.00,meteobridge,2013-03-12 20:23:00,
2013-03-12 14:28:00,65.1,21.7,30.08,ENE,59,2.0,4.9,19,0.00,,,0.00,meteobridge,2013-03-12 20:28:00,
2013-03-12 14:33:00,64.9,22.8,30.07,SW,228,0.9,2.9,20,0.00,,,0.00,meteobridge,2013-03-12 20:33:00,
2013-03-12 14:38:00,64.6,21.4,30.08,NW,309,2.9,6.0,19,0.00,,,0.00,meteobridge,2013-03-12 20:38:00,
2013-03-12 14:43:00,63.5,21.7,30.07,North,5,0.9,4.0,20,0.00,,,0.00,meteobridge,2013-03-12 20:43:00,
2013-03-12 14:48:00,64.0,21.0,30.07,SSE,150,0.9,4.9,19,0.00,,,0.00,meteobridge,2013-03-12 20:48:00,
2013-03-12 14:53:00,64.8,21.6,30.06,NNW,330,0.9,2.0,19,0.00,,,0.00,meteobridge,2013-03-12 20:53:00,
2013-03-12 14:58:00,66.2,21.4,30.06,NNE,14,4.0,6.0,18,0.00,,,0.00,meteobridge,2013-03-12 20:58:00,
2013-03-12 15:03:00,66.9,22.1,30.05,WNW,288,0.9,4.9,18,0.00,,,0.00,meteobridge,2013-03-12 21:03:00,
2013-03-12 15:08:00,66.4,21.6,30.05,WSW,257,2.0,2.9,18,0.00,,,0.00,meteobridge,2013-03-12 21:08:00,
2013-03-12 15:13:00,66.9,20.7,30.05,SW,230,0.9,2.9,17,0.00,,,0.00,meteobridge,2013-03-12 21:13:00,
2013-03-12 15:19:00,65.1,20.5,30.04,WSW,237,2.0,4.9,18,0.00,,,0.00,meteobridge,2013-03-12 21:19:00,
2013-03-12 15:24:00,65.8,22.5,30.04,WSW,251,4.9,4.9,19,0.00,,,0.00,meteobridge,2013-03-12 21:24:00,
2013-03-12 15:29:00,66.4,21.6,30.04,SW,216,2.0,6.9,18,0.00,,,0.00,meteobridge,2013-03-12 21:29:00,
2013-03-12 15:34:00,66.2,21.4,30.04,SSW,193,0.9,6.9,18,0.00,,,0.00,meteobridge,2013-03-12 21:34:00,
2013-03-12 15:39:00,65.8,21.2,30.04,WSW,243,2.9,4.9,18,0.00,,,0.00,meteobridge,2013-03-12 21:39:00,
2013-03-12 15:44:00,65.1,20.5,30.04,SSE,163,0.9,6.0,18,0.00,,,0.00,meteobridge,2013-03-12 21:44:00,
2013-03-12 15:49:00,65.5,20.8,30.04,SE,139,0.9,4.9,18,0.00,,,0.00,meteobridge,2013-03-12 21:49:00,
2013-03-12 15:54:00,66.0,21.2,30.04,South,178,0.0,2.0,18,0.00,,,0.00,meteobridge,2013-03-12 21:54:00,
2013-03-12 15:59:00,65.8,21.2,30.04,SSE,154,4.9,6.9,18,0.00,,,0.00,meteobridge,2013-03-12 21:59:00,
2013-03-12 16:04:00,65.8,21.2,30.04,SE,140,2.0,4.9,18,0.00,,,0.00,meteobridge,2013-03-12 22:04:00,
2013-03-12 16:09:00,66.7,21.9,30.04,NW,309,0.9,6.0,18,0.00,,,0.00,meteobridge,2013-03-12 22:09:00,
2013-03-12 16:14:00,66.4,21.6,30.04,NW,305,2.0,4.0,18,0.00,,,0.00,meteobridge,2013-03-12 22:14:00,
2013-03-12 16:19:00,66.7,20.5,30.04,NW,315,0.0,4.0,17,0.00,,,0.00,meteobridge,2013-03-12 22:19:00,
2013-03-12 16:24:00,66.4,21.6,30.04,NE,40,2.0,2.9,18,0.00,,,0.00,meteobridge,2013-03-12 22:24:00,
2013-03-12 16:29:00,67.3,21.0,30.04,NW,319,2.9,2.9,17,0.00,,,0.00,meteobridge,2013-03-12 22:29:00,
2013-03-12 16:34:00,67.6,21.2,30.04,North,351,4.9,6.0,17,0.00,,,0.00,meteobridge,2013-03-12 22:34:00,
2013-03-12 16:39:00,67.3,21.0,30.04,NNW,344,0.9,2.9,17,0.00,,,0.00,meteobridge,2013-03-12 22:39:00,
2013-03-12 16:44:00,67.6,23.9,30.04,SSW,213,2.9,6.9,19,0.00,,,0.00,meteobridge,2013-03-12 22:44:00,
2013-03-12 16:49:00,66.6,20.3,30.04,WSW,240,4.0,6.9,17,0.00,,,0.00,meteobridge,2013-03-12 22:49:00,
2013-03-12 16:54:00,67.3,21.0,30.04,NW,321,2.9,4.0,17,0.00,,,0.00,meteobridge,2013-03-12 22:54:00,
2013-03-12 16:59:00,66.6,20.3,30.04,NNW,344,0.9,2.9,17,0.00,,,0.00,meteobridge,2013-03-12 22:59:00,
2013-03-12 17:04:00,66.2,20.1,30.03,SE,144,0.9,4.9,17,0.00,,,0.00,meteobridge,2013-03-12 23:04:00,
2013-03-12 17:09:00,65.8,19.8,30.03,ESE,115,2.0,2.9,17,0.00,,,0.00,meteobridge,2013-03-12 23:09:00,
2013-03-12 17:14:00,65.7,21.0,30.03,SE,140,0.0,4.9,18,0.00,,,0.00,meteobridge,2013-03-12 23:14:00,
2013-03-12 17:19:00,65.8,19.8,30.03,SSE,163,2.9,4.9,17,0.00,,,0.00,meteobridge,2013-03-12 23:19:00,
2013-03-12 17:24:00,66.0,19.9,30.03,SE,136,2.0,4.9,17,0.00,,,0.00,meteobridge,2013-03-12 23:24:00,
2013-03-12 17:29:00,66.0,19.9,30.03,SE,125,2.0,2.0,17,0.00,,,0.00,meteobridge,2013-03-12 23:29:00,
2013-03-12 17:34:00,66.6,20.3,30.03,SSE,155,0.9,6.0,17,0.00,,,0.00,meteobridge,2013-03-12 23:34:00,
2013-03-12 17:40:00,66.7,20.5,30.03,SE,128,4.0,6.0,17,0.00,,,0.00,meteobridge,2013-03-12 23:40:00,
2013-03-12 17:45:00,66.7,20.5,30.03,South,183,2.9,4.9,17,0.00,,,0.00,meteobridge,2013-03-12 23:45:00,
2013-03-12 17:50:00,66.7,20.5,30.03,SSE,167,2.0,2.0,17,0.00,,,0.00,meteobridge,2013-03-12 23:50:00,
2013-03-12 17:55:00,66.6,20.3,30.03,SSE,151,2.9,4.9,17,0.00,,,0.00,meteobridge,2013-03-12 23:55:00,
2013-03-12 18:00:00,66.6,20.3,30.03,SSW,196,4.9,6.0,17,0.00,,,0.00,meteobridge,2013-03-13 00:00:00,
2013-03-12 18:05:00,66.4,20.3,30.03,NW,319,0.9,2.0,17,0.00,,,0.00,meteobridge,2013-03-13 00:05:00,
2013-03-12 18:10:00,66.0,19.9,30.03,SSE,162,6.9,8.1,17,0.00,,,0.00,meteobridge,2013-03-13 00:10:00,
2013-03-12 18:15:00,65.5,19.6,30.03,SSE,163,2.9,6.0,17,0.00,,,0.00,meteobridge,2013-03-13 00:15:00,
2013-03-12 18:20:00,65.1,19.2,30.03,SSE,158,2.9,6.0,17,0.00,,,0.00,meteobridge,2013-03-13 00:20:00,
2013-03-12 18:25:00,64.8,20.3,30.03,South,183,0.9,2.0,18,0.00,,,0.00,meteobridge,2013-03-13 00:25:00,
2013-03-12 18:30:00,64.6,20.1,30.03,SE,141,4.0,6.0,18,0.00,,,0.00,meteobridge,2013-03-13 00:30:00,
2013-03-12 18:35:00,64.6,20.1,30.03,SE,140,2.0,6.0,18,0.00,,,0.00,meteobridge,2013-03-13 00:35:00,
2013-03-12 18:40:00,64.2,19.8,30.04,SE,126,2.9,6.0,18,0.00,,,0.00,meteobridge,2013-03-13 00:40:00,
2013-03-12 18:45:00,63.9,20.8,30.04,SE,144,4.0,4.0,19,0.00,,,0.00,meteobridge,2013-03-13 00:45:00,
2013-03-12 18:50:00,63.5,20.5,30.04,East,98,0.9,2.0,19,0.00,,,0.00,meteobridge,2013-03-13 00:50:00,
2013-03-12 18:55:00,63.1,20.1,30.04,ENE,72,2.9,4.9,19,0.00,,,0.00,meteobridge,2013-03-13 00:55:00,
2013-03-12 19:00:00,63.0,21.2,30.05,ESE,105,0.0,4.9,20,0.00,,,0.00,meteobridge,2013-03-13 01:00:00,
2013-03-12 19:05:00,62.4,20.8,30.06,ESE,106,4.9,6.9,20,0.00,,,0.00,meteobridge,2013-03-13 01:05:00,
2013-03-12 19:10:00,62.2,20.7,30.06,ESE,113,2.9,6.0,20,0.00,,,0.00,meteobridge,2013-03-13 01:10:00,
2013-03-12 19:15:00,61.9,20.3,30.06,ESE,122,0.0,6.9,20,0.00,,,0.00,meteobridge,2013-03-13 01:15:00,
2013-03-12 19:21:00,61.5,21.2,30.06,SE,140,2.0,4.9,21,0.00,,,0.00,meteobridge,2013-03-13 01:21:00,
2013-03-12 19:26:00,61.3,21.0,30.07,SSE,161,0.0,4.0,21,0.00,,,0.00,meteobridge,2013-03-13 01:26:00,
2013-03-12 19:31:00,61.0,20.8,30.08,SSW,199,2.0,2.9,21,0.00,,,0.00,meteobridge,2013-03-13 01:31:00,
2013-03-12 19:36:00,61.0,20.8,30.07,SSW,196,0.0,2.0,21,0.00,,,0.00,meteobridge,2013-03-13 01:36:00,
2013-03-12 19:41:00,60.4,21.4,30.08,West,275,0.0,2.0,22,0.00,,,0.00,meteobridge,2013-03-13 01:41:00,
2013-03-12 19:46:00,60.1,21.0,30.08,WNW,295,0.0,2.0,22,0.00,,,0.00,meteobridge,2013-03-13 01:46:00,
2013-03-12 19:51:00,59.9,21.0,30.08,SW,229,2.0,2.9,22,0.00,,,0.00,meteobridge,2013-03-13 01:51:00,
2013-03-12 19:57:00,59.5,21.7,30.09,SE,128,0.9,2.0,23,0.00,,,0.00,meteobridge,2013-03-13 01:57:00,
2013-03-12 20:02:00,59.5,20.7,30.09,East,90,0.9,2.0,22,0.00,,,0.00,meteobridge,2013-03-13 02:02:00,
2013-03-12 20:07:00,59.7,20.8,30.09,SE,142,2.0,2.0,22,0.00,,,0.00,meteobridge,2013-03-13 02:07:00,
2013-03-12 20:12:00,59.5,20.7,30.09,South,188,2.9,4.0,22,0.00,,,0.00,meteobridge,2013-03-13 02:12:00,
2013-03-12 20:17:00,59.5,20.7,30.09,SSE,163,0.9,2.9,22,0.00,,,0.00,meteobridge,2013-03-13 02:17:00,
2013-03-12 20:22:00,59.4,20.5,30.09,SSE,163,0.9,0.9,22,0.00,,,0.00,meteobridge,2013-03-13 02:22:00,
2013-03-12 20:27:00,58.8,20.1,30.10,SW,215,0.9,2.9,22,0.00,,,0.00,meteobridge,2013-03-13 02:27:00,
2013-03-12 20:32:00,60.1,19.9,30.10,NE,36,0.0,2.0,21,0.00,,,0.00,meteobridge,2013-03-13 02:32:00,
2013-03-12 20:37:00,59.2,20.3,30.10,NNE,29,0.0,0.9,22,0.00,,,0.00,meteobridge,2013-03-13 02:37:00,
2013-03-12 20:43:00,58.6,21.0,30.10,NNE,24,0.0,0.0,23,0.00,,,0.00,meteobridge,2013-03-13 02:43:00,
2013-03-12 20:48:00,57.7,21.2,30.10,NNE,23,0.0,0.0,24,0.00,,,0.00,meteobridge,2013-03-13 02:48:00,
2013-03-12 20:53:00,57.0,20.5,30.11,NNE,24,0.0,0.0,24,0.00,,,0.00,meteobridge,2013-03-13 02:53:00,
2013-03-12 20:58:00,56.5,21.0,30.11,NNE,24,0.0,0.0,25,0.00,,,0.00,meteobridge,2013-03-13 02:58:00,
2013-03-12 21:03:00,55.8,21.4,30.11,NNE,23,0.0,0.9,26,0.00,,,0.00,meteobridge,2013-03-13 03:03:00,
2013-03-12 21:08:00,55.2,20.8,30.11,NNE,23,0.0,0.0,26,0.00,,,0.00,meteobridge,2013-03-13 03:08:00,
2013-03-12 21:13:00,55.0,21.7,30.11,NNE,23,0.0,0.0,27,0.00,,,0.00,meteobridge,2013-03-13 03:13:00,
2013-03-12 21:18:00,55.2,21.7,30.11,NNE,24,0.0,0.0,27,0.00,,,0.00,meteobridge,2013-03-13 03:18:00,
2013-03-12 21:23:00,54.3,22.6,30.11,NNE,23,0.0,0.0,29,0.00,,,0.00,meteobridge,2013-03-13 03:23:00,
2013-03-12 21:28:00,53.4,21.9,30.11,NNE,24,0.0,0.0,29,0.00,,,0.00,meteobridge,2013-03-13 03:28:00,
2013-03-12 21:33:00,53.1,22.5,30.12,NNE,24,0.0,0.0,30,0.00,,,0.00,meteobridge,2013-03-13 03:33:00,
2013-03-12 21:39:00,52.5,21.9,30.12,NNE,24,0.0,0.0,30,0.00,,,0.00,meteobridge,2013-03-13 03:39:00,
2013-03-12 21:44:00,52.2,22.5,30.12,NNE,23,0.0,0.0,31,0.00,,,0.00,meteobridge,2013-03-13 03:44:00,
2013-03-12 21:49:00,52.0,22.3,30.12,NNE,23,0.0,0.0,31,0.00,,,0.00,meteobridge,2013-03-13 03:49:00,
2013-03-12 21:54:00,51.4,22.6,30.12,NNE,23,0.0,0.0,32,0.00,,,0.00,meteobridge,2013-03-13 03:54:00,
2013-03-12 21:59:00,50.5,22.5,30.13,NNE,24,0.0,0.0,33,0.00,,,0.00,meteobridge,2013-03-13 03:59:00,
2013-03-12 22:00:00,50.4,23.0,30.12,NNE,23,0.0,0.0,34,0.00,,,0.00,meteobridge,2013-03-13 04:00:00,
2013-03-12 22:05:00,50.4,23.0,30.13,NNE,24,0.0,0.0,34,0.00,,,0.00,meteobridge,2013-03-13 04:05:00,
2013-03-12 22:11:00,50.5,22.5,30.13,NNE,23,0.0,0.0,33,0.00,,,0.00,meteobridge,2013-03-13 04:11:00,
2013-03-12 22:16:00,50.5,23.2,30.13,NNE,23,0.0,0.0,34,0.00,,,0.00,meteobridge,2013-03-13 04:16:00,
2013-03-12 22:21:00,50.2,22.8,30.14,NNE,23,0.0,0.0,34,0.00,,,0.00,meteobridge,2013-03-13 04:21:00,
2013-03-12 22:26:00,49.6,23.2,30.14,NNE,23,0.0,0.9,35,0.00,,,0.00,meteobridge,2013-03-13 04:26:00,
2013-03-12 22:31:00,49.5,23.0,30.14,NNE,24,0.0,0.0,35,0.00,,,0.00,meteobridge,2013-03-13 04:31:00,
2013-03-12 22:36:00,49.3,22.8,30.14,SSE,155,0.9,2.9,35,0.00,,,0.00,meteobridge,2013-03-13 04:36:00,
2013-03-12 22:41:00,49.6,23.2,30.15,SE,145,0.0,4.0,35,0.00,,,0.00,meteobridge,2013-03-13 04:41:00,
2013-03-12 22:46:00,49.8,23.2,30.15,SE,145,0.0,0.9,35,0.00,,,0.00,meteobridge,2013-03-13 04:46:00,
2013-03-12 22:51:00,49.6,23.2,30.15,SE,145,0.0,0.9,35,0.00,,,0.00,meteobridge,2013-03-13 04:51:00,
2013-03-12 22:56:00,49.6,23.2,30.15,SE,145,0.0,0.9,35,0.00,,,0.00,meteobridge,2013-03-13 04:56:00,
2013-03-12 23:01:00,49.3,23.5,30.15,SE,145,0.0,0.0,36,0.00,,,0.00,meteobridge,2013-03-13 05:01:00,
2013-03-12 23:06:00,49.5,23.5,30.15,SE,145,0.0,0.9,36,0.00,,,0.00,meteobridge,2013-03-13 05:06:00,
2013-03-12 23:11:00,48.9,23.7,30.16,SE,145,0.9,2.0,37,0.00,,,0.00,meteobridge,2013-03-13 05:11:00,
2013-03-12 23:16:00,48.7,23.5,30.16,SE,145,0.0,0.9,37,0.00,,,0.00,meteobridge,2013-03-13 05:16:00,
2013-03-12 23:22:00,48.7,24.3,30.16,ESE,115,2.0,2.0,38,0.00,,,0.00,meteobridge,2013-03-13 05:22:00,
2013-03-12 23:27:00,48.7,24.3,30.16,ESE,115,0.9,0.9,38,0.00,,,0.00,meteobridge,2013-03-13 05:27:00,
2013-03-12 23:32:00,48.9,25.0,30.15,East,101,2.0,2.9,39,0.00,,,0.00,meteobridge,2013-03-13 05:32:00,
2013-03-12 23:37:00,49.3,24.8,30.15,East,98,2.0,2.9,38,0.00,,,0.00,meteobridge,2013-03-13 05:37:00,
2013-03-12 23:42:00,48.7,24.3,30.15,SSE,150,4.0,4.0,38,0.00,,,0.00,meteobridge,2013-03-13 05:42:00,
2013-03-12 23:47:00,48.4,24.6,30.16,SE,140,0.9,2.9,39,0.00,,,0.00,meteobridge,2013-03-13 05:47:00,
2013-03-12 23:52:00,48.0,25.5,30.16,ESE,113,0.9,0.9,41,0.00,,,0.00,meteobridge,2013-03-13 05:52:00,
2013-03-12 23:57:00,48.0,26.1,30.15,ESE,113,0.9,0.9,42,0.00,,,0.00,meteobridge,2013-03-13 05:57:00,